Regional Weather Roundup
Issued by NWS

Current Version | Previous Version | Text Only | Print | Product List | Glossary On
Versions: 1 2 3 4 5 6 7 8 9 10 11 12 13 14 15 16 17 18 19 20 21 22 23 24 25 26 27
000
ASUS44 KLIX 051014
RWRLA
LOUISIANA WEATHER ROUNDUP
NATIONAL WEATHER SERVICE NEW ORLEANS LA
400 AM CST MON DEC 05 2016

NOTE: "FAIR" INDICATES FEW OR NO CLOUDS BELOW 12,000 FEET WITH NO
      SIGNIFICANT WEATHER AND/OR OBSTRUCTIONS TO VISIBILITY.
      SKY/WX - SKY CONDITION AND SIGNIFICANT WEATHER.
      TMP - AIR TEMPERATURE.    DP   - DEWPOINT TEMPERATURE.
      RH  - RELATIVE HUMIDITY.  PRES - PRESSURE.
      HX  - HEAT INDEX.         WCI  - WIND CHILL INDEX.

*  THESE STATIONS ARE NOT NWS OR FAA STATIONS AND ARE NOT UNDER
   NWS QUALITY CONTROL.

LAZ040-048-061>063-065-066-069-051100-
SOUTHEAST LOUISIANA

CITY           SKY/WX    TMP DP  RH WIND       PRES   REMARKS
N.O. AUDUBON   NOT AVBL
N.O. INTL ARPT FOG       58  58 100 N7        29.89F VSB 1
N.O. LAKEFRONT FOG       59  59 100 NE15      29.90F VSB 3/4
N.O. DOWNTOWN* FOG       59  59 100 N10       29.90F VSB 1
RESERVE*       CLOUDY    58  56  94 NE6       29.90F FOG
SLIDELL        CLOUDY    58  58 100 NE8       29.90F FOG
BATON ROUGE    CLOUDY    53  52  96 NE8       29.90F
BOOTHVILLE     PTCLDY    66  66 100 SE9       29.85F
BELLE CHASSE   CLOUDY    61  60  97 N8        29.88F
BOGALUSA*      CLOUDY    57  54  90 NE3       29.95S
GALLIANO*      CLOUDY    64  61  90 N10       29.87F
NEW ROADS*     CLOUDY    50  50  97 NE6       29.91F
GONZALES*      CLOUDY    56  56 100 E5        29.88F FOG
HAMMOND*       CLOUDY    55  54  94 E3        29.92S
HOUMA*         CLOUDY    60  60  99 N10       29.88F FOG
PORT FOURCHON* PTSUNNY   72  68  88 SE12G17   29.84F

$$

LAZ041-044-053-054-051100-
SOUTHWEST LOUISIANA

CITY           SKY/WX    TMP DP  RH WIND       PRES   REMARKS
LAKE CHARLES   CLOUDY    50  49  96 NE12      29.87F
LAFAYETTE      CLOUDY    52  51  97 NE9       29.88F
PATTERSON      LGT RAIN N/A N/A N/A NE10      29.88F VSB 1
SALT POINT     NOT AVBL
NEW IBERIA     CLOUDY    53  50  89 NE10      29.89F
CHENAULT AIRPK CLOUDY    49  49  98 NE8       29.88R

$$

LAZ027-028-051100-
CENTRAL LOUISIANA

CITY           SKY/WX    TMP DP  RH WIND       PRES   REMARKS
FORT POLK      RAIN      47  47  98 N10       29.89F FOG
ALEXANDRIA INT HVY RAIN  47  46  97 NE7       29.91F FOG
ALEXANDRIA     TSTM      48  47  96 N7        29.93F FOG

$$

LAZ001-002-051100-
NORTHWEST LOUISIANA

CITY           SKY/WX    TMP DP  RH WIND       PRES   REMARKS
SHREVEPORT     LGT RAIN  47  45  93 NE10      29.95F
BARKSDALE AFB  LGT RAIN  46  46  99 NE5       29.98F
DTN SHREVEPORT RAIN      47  44  90 NE6       29.98F

$$

LAZ014-016-051100-
NORTHEAST LOUISIANA

CITY           SKY/WX    TMP DP  RH WIND       PRES   REMARKS
MONROE         CLOUDY    47  43  86 NE6       30.02R
TALLULAH       CLOUDY    48  45  89 NE9       29.96F

$$





USA.gov is the U.S. government's official web portal to all federal, state and local government web resources and services.